Voltar ao catálogo

HEAD-1

AtivoCiênciaSSO
NORAD 43011·PAYLOAD·🇨🇳 China

Lançado Nov 14, 2017 de Taiyuan Satellite Launch Center

Loading…

Próximas Passagens (próximas 24 horas)

TLE

AtualizadoSource: Space-Track

Época: Sep 14, 2026, 14:15 UTC

1 43011U 17072B   26257.59390139  .00000162  00000-0  82768-4 0  9991
2 43011  98.9534 278.4872 0008881 253.9140 106.1063 14.28844392460121

Acompanhe HEAD-1 em tempo real com AllMySat

Download on the App Store